Tracking 19576 objects as of 17-Feb-2019
HD Live streaming from Space Station
objects crossing your sky now

HINCUBE

Track HINCUBE now!
10-day predictions
HINCUBE is classified as:


NORAD ID: 39445
Int'l Code: 2013-066AF
Perigee: 589.4 km
Apogee: 672.7 km
Inclination: 97.6 °
Period: 97.2 minutes
Semi major axis: 7002 km
RCS: Unknown
Launch date: November 21, 2013
Source: Norway (NOR)
Launch site: Orenburg, Russia (OREN)

Uplink (MHz):
Downlink (MHz): 437.305
Beacon (MHz):
Mode:
Call sign:
Status: Inactive

aabbcc
Your satellite tracking list
Your tracking list is empty




NASA's NSSDC Master Catalog

Two Line Element Set (TLE):
1 39445U 13066AF  19048.55608780  .00000225  00000-0  33997-4 0  9996
2 39445  97.5702  70.5490 0059520  67.2708 293.4782 14.81716666281544
Source of the keplerian elements: AFSPC